�������l�o���
Date,Time,MP-1(��Sv/h),MP-2(��Sv/h),MP-3(��Sv/h),MP-4(��Sv/h),MP-5(��Sv/h),MP-6(��Sv/h),MP-7(��Sv/h),MP-8(��Sv/h),����,����(m/s),���J
2016/09/13,00:00,1.188,1.838,1.627,2.005,1.357,0.587,1.065,0.961,�k�k��,6.1,�L
2016/09/13,00:10,1.188,1.840,1.627,2.006,1.363,0.586,1.065,0.962,�k��,5.8,��
2016/09/13,00:20,1.189,1.844,1.629,2.006,1.362,0.587,1.066,0.963,�k�k��,5.5,��
2016/09/13,00:30,1.192,1.845,1.631,2.015,1.361,0.589,1.068,0.964,�k�k��,5.0,��
2016/09/13,00:40,1.194,1.846,1.637,2.015,1.363,0.588,1.066,0.966,�k�k��,3.9,��
2016/09/13,00:50,1.195,1.848,1.637,2.015,1.367,0.590,1.068,0.964,�k�k��,4.5,��
2016/09/13,01:00,1.195,1.852,1.636,2.017,1.368,0.590,1.068,0.967,�k�k��,4.5,��
2016/09/13,01:10,1.196,1.855,1.638,2.018,1.371,0.591,1.069,0.965,�k�k��,5.0,��
2016/09/13,01:20,1.200,1.855,1.642,2.018,1.371,0.591,1.069,0.965,�k�k��,4.6,�L
2016/09/13,01:30,1.197,1.853,1.640,2.018,1.371,0.591,1.070,0.967,�k�k��,3.9,�L
2016/09/13,01:40,1.200,1.854,1.641,2.018,1.370,0.591,1.071,0.964,�k�k��,4.9,�L
2016/09/13,01:50,1.201,1.853,1.638,2.019,1.372,0.591,1.069,0.963,�k�k��,4.4,�L
2016/09/13,02:00,1.200,1.853,1.640,2.018,1.370,0.591,1.069,0.964,�k�k��,4.4,�L
2016/09/13,02:10,1.199,1.851,1.641,2.020,1.369,0.590,1.071,0.966,�k�k��,5.2,�L
2016/09/13,02:20,1.198,1.853,1.635,2.017,1.366,0.590,1.065,0.964,�k�k��,4.1,�L
2016/09/13,02:30,1.191,1.836,1.629,2.005,1.356,0.588,1.066,0.961,�k�k��,3.4,�L
2016/09/13,02:40,1.187,1.834,1.627,2.003,1.354,0.588,1.062,0.960,�k�k��,2.7,�L
2016/09/13,02:50,1.189,1.834,1.624,2.005,1.350,0.587,1.066,0.961,�k�k��,2.6,�L
2016/09/13,03:00,1.188,1.840,1.630,2.006,1.357,0.588,1.064,0.961,�k,2.6,�L
2016/09/13,03:10,1.187,1.834,1.626,2.001,1.355,0.587,1.063,0.963,�k,2.2,�L
2016/09/13,03:20,1.177,1.819,1.614,1.990,1.341,0.587,1.058,0.961,�k�k��,4.5,�L
2016/09/13,03:30,1.172,1.813,1.611,1.984,1.340,0.585,1.059,0.957,�k,3.4,�L
2016/09/13,03:40,1.172,1.815,1.612,1.983,1.340,0.585,1.056,0.957,�k�k��,3.1,�L
2016/09/13,03:50,1.166,1.810,1.605,1.977,1.333,0.583,1.054,0.956,�k,2.4,�L
2016/09/13,04:00,1.165,1.807,1.603,1.973,1.327,0.583,1.054,0.955,�k��,4.7,�L
2016/09/13,04:10,1.161,1.805,1.601,1.970,1.325,0.581,1.051,0.953,�k��,2.5,�L
2016/09/13,04:20,1.163,1.807,1.601,1.970,1.324,0.580,1.053,0.955,���k��,3.2,�L
2016/09/13,04:30,1.160,1.800,1.599,1.968,1.321,0.582,1.051,0.952,�k�k��,2.7,�L
2016/09/13,04:40,1.151,1.791,1.593,1.960,1.311,0.576,1.047,0.949,�k,6.1,�L
2016/09/13,04:50,1.149,1.780,1.589,1.950,1.303,0.577,1.045,0.950,�k�k��,4.6,�L
2016/09/13,05:00,1.149,1.784,1.591,1.952,1.303,0.577,1.045,0.948,-,CALM,�L
2016/09/13,05:10,1.147,1.782,1.589,1.953,1.301,0.578,1.045,0.949,���쓌,4.1,�L
2016/09/13,05:20,1.151,1.790,1.588,1.952,1.304,0.578,1.043,0.948,�k��,7.1,�L
2016/09/13,05:30,1.153,1.791,1.589,1.955,1.300,0.577,1.044,0.950,-,CALM,�L
2016/09/13,05:40,1.147,1.775,1.578,1.944,1.293,0.575,1.041,0.948,�k�k��,3.4,�L
2016/09/13,05:50,1.144,1.775,1.576,1.941,1.291,0.577,1.042,0.949,�k��,7.1,�L
2016/09/13,06:00,1.151,1.784,1.576,1.943,1.290,0.578,1.044,0.946,�k��,6.6,�L
2016/09/13,06:10,1.151,1.786,1.575,1.941,1.291,0.578,1.043,0.947,�k��,8.0,�L
2016/09/13,06:20,1.148,1.779,1.564,1.937,1.281,0.576,1.040,0.947,�k��,6.3,�L
2016/09/13,06:30,1.145,1.775,1.565,1.934,1.279,0.577,1.038,0.945,�k�k��,6.7,�L
2016/09/13,06:40,1.152,1.788,1.570,1.939,1.286,0.577,1.041,0.949,�k�k��,8.2,�L
2016/09/13,06:50,1.159,1.795,1.572,1.946,1.291,0.579,1.043,0.951,�k�k��,8.0,�L
2016/09/13,07:00,1.166,1.803,1.579,1.953,1.295,0.580,1.046,0.950,�k�k��,6.0,�L
2016/09/13,07:10,1.171,1.808,1.582,1.956,1.302,0.584,1.045,0.952,�k�k��,8.8,�L
2016/09/13,07:20,1.174,1.813,1.581,1.960,1.303,0.584,1.048,0.952,�k��,9.6,�L
2016/09/13,07:30,1.174,1.811,1.587,1.960,1.301,0.584,1.048,0.954,�k��,5.2,�L
2016/09/13,07:40,1.174,1.808,1.585,1.957,1.305,0.585,1.048,0.954,���쓌,4.1,�L
2016/09/13,07:50,1.177,1.817,1.590,1.967,1.309,0.583,1.052,0.955,�쐼,1.7,�L
2016/09/13,08:00,1.174,1.820,1.588,1.958,1.305,0.582,1.050,0.951,�k,2.5,�L
2016/09/13,08:10,1.177,1.808,1.575,1.941,1.289,0.578,1.046,0.951,���k��,8.3,�L
2016/09/13,08:20,1.176,1.815,1.583,1.948,1.298,0.582,1.048,0.954,��,11.2,�L
2016/09/13,08:30,1.183,1.819,1.538,1.957,1.305,0.583,1.052,0.955,���k��,10.4,��
2016/09/13,08:40,1.179,1.828,1.537,1.966,1.309,0.585,1.053,0.954,��,11.5,��
2016/09/13,08:50,1.181,1.831,1.498,1.969,1.314,0.585,1.055,0.957,��,10.8,��
2016/09/13,09:00,1.183,1.830,1.492,1.977,1.316,0.585,1.059,0.956,���k��,8.9,��
2016/09/13,09:10,1.186,1.832,1.488,1.979,1.318,0.586,1.058,0.957,�k��,5.2,��
2016/09/13,09:20,1.184,1.829,1.480,1.981,1.317,0.586,1.057,0.957,�k�k��,4.6,�L
2016/09/13,09:30,1.174,1.785,1.434,1.933,1.272,0.578,1.054,0.957,�k�k��,6.9,�L
2016/09/13,09:40,1.151,1.751,1.423,1.908,1.252,0.572,1.038,0.951,�k��,9.9,�L
2016/09/13,09:50,1.140,1.765,1.426,1.912,1.254,0.575,1.033,0.938,�k,6.0,�L
2016/09/13,10:00,1.138,1.770,1.431,1.914,1.262,0.576,1.036,0.938,�k,7.4,�L
2016/09/13,10:10,1.144,1.778,1.454,1.914,1.263,0.578,1.038,0.942,�k,6.6,�L
2016/09/13,10:20,1.142,1.782,1.413,1.923,1.266,0.579,1.038,0.941,�k,5.3,�L
2016/09/13,10:30,1.140,1.770,1.416,1.914,1.264,0.576,1.031,0.938,�k�k��,6.3,�L
2016/09/13,10:40,1.137,1.773,1.435,1.911,1.263,0.578,1.032,0.938,�k�k��,8.3,�L
2016/09/13,10:50,1.135,1.761,1.444,1.896,1.252,0.574,1.026,0.938,�k�k��,9.4,�L
2016/09/13,11:00,1.140,1.775,1.474,1.906,1.254,0.577,1.031,0.941,�k�k��,6.7,�L
2016/09/13,11:10,1.136,1.758,1.456,1.887,1.242,0.573,1.029,0.942,�k,8.0,�L
2016/09/13,11:20,1.144,1.773,1.461,1.890,1.238,0.573,1.031,0.942,�k,7.7,�L
2016/09/13,11:30,1.146,1.759,1.459,1.892,1.239,0.576,1.031,0.942,�k��,6.7,�L
2016/09/13,11:40,1.147,1.763,1.461,1.889,1.238,0.576,1.029,0.940,�k,6.9,�L
2016/09/13,11:50,1.147,1.769,1.460,1.890,1.239,0.575,1.027,0.939,�k�k��,7.8,�L
2016/09/13,12:00,1.139,1.773,1.463,1.895,1.246,0.578,1.028,0.940,�k,8.8,�L
2016/09/13,12:10,1.137,1.776,1.463,1.895,1.245,0.576,1.027,0.938,�k�k��,7.4,�L
2016/09/13,12:20,1.138,1.779,1.468,1.900,1.251,0.578,1.026,0.938,�k,8.3,�L
2016/09/13,12:30,1.142,1.778,1.464,1.904,1.254,0.578,1.027,0.940,�k�k��,8.8,�L
2016/09/13,12:40,1.147,1.784,1.474,1.906,1.254,0.577,1.031,0.942,�k��,9.1,�L
2016/09/13,12:50,1.152,1.790,1.475,1.916,1.261,0.578,1.035,0.944,�k�k��,8.3,�L
2016/09/13,13:00,1.156,1.795,1.478,1.922,1.261,0.579,1.033,0.945,�k�k��,8.5,�L
2016/09/13,13:10,1.150,1.792,1.478,1.920,1.261,0.577,1.034,0.943,�k�k��,7.4,�L
2016/09/13,13:20,1.154,1.789,1.475,1.917,1.261,0.578,1.033,0.942,�k�k��,8.2,�L
2016/09/13,13:30,1.151,1.788,1.477,1.923,1.265,0.578,1.036,0.947,�k�k��,8.6,�L
2016/09/13,13:40,1.154,1.792,1.479,1.926,1.269,0.578,1.036,0.946,�k�k��,9.1,�L
2016/09/13,13:50,1.156,1.795,1.481,1.923,1.266,0.578,1.038,0.947,�k�k��,7.7,�L
2016/09/13,14:00,1.156,1.797,1.482,1.930,1.269,0.578,1.037,0.946,�k�k��,7.4,�L
2016/09/13,14:10,1.157,1.797,1.483,1.933,1.272,0.577,1.039,0.944,�k�k��,7.1,�L
2016/09/13,14:20,1.158,1.803,1.486,1.935,1.273,0.578,1.039,0.946,�k�k��,7.5,�L
2016/09/13,14:30,1.159,1.804,1.488,1.940,1.277,0.579,1.038,0.946,�k,6.9,�L
2016/09/13,14:40,1.159,1.807,1.489,1.942,1.280,0.579,1.042,0.948,�k,7.5,�L
2016/09/13,14:50,1.163,1.811,1.490,1.945,1.283,0.580,1.043,0.949,�k,7.7,�L
2016/09/13,15:00,1.166,1.810,1.496,1.950,1.284,0.579,1.041,0.947,�k,6.9,��
2016/09/13,15:10,1.167,1.816,1.495,1.953,1.290,0.582,1.042,0.947,�k,6.6,�L
2016/09/13,15:20,1.163,1.810,1.495,1.952,1.289,0.579,1.044,0.950,�k,7.1,�L
2016/09/13,15:30,1.165,1.809,1.497,1.950,1.286,0.579,1.041,0.947,�k,7.4,�L
2016/09/13,15:40,1.166,1.809,1.494,1.952,1.289,0.579,1.042,0.949,�k�k��,7.7,�L
2016/09/13,15:50,1.167,1.810,1.498,1.949,1.289,0.579,1.043,0.948,�k�k��,7.5,�L
2016/09/13,16:00,1.168,1.814,1.498,1.953,1.293,0.579,1.044,0.950,�k,7.1,��
2016/09/13,16:10,1.168,1.814,1.500,1.958,1.294,0.579,1.046,0.950,�k,6.0,��
2016/09/13,16:20,1.169,1.814,1.505,1.962,1.296,0.580,1.045,0.948,�k,7.7,�L
2016/09/13,16:30,1.171,1.813,1.500,1.964,1.297,0.580,1.047,0.950,�k,8.3,�L
2016/09/13,16:40,1.171,1.817,1.501,1.963,1.298,0.580,1.046,0.950,�k,7.1,�L
2016/09/13,16:50,1.172,1.818,1.502,1.961,1.297,0.579,1.047,0.949,�k�k��,7.7,�L
2016/09/13,17:00,1.170,1.813,1.502,1.960,1.299,0.581,1.047,0.950,�k�k��,6.9,�L
2016/09/13,17:10,1.166,1.814,1.502,1.959,1.295,0.579,1.047,0.949,�k�k��,7.1,�L
2016/09/13,17:20,1.167,1.815,1.498,1.961,1.297,0.580,1.048,0.948,�k�k��,7.4,�L
2016/09/13,17:30,1.166,1.811,1.503,1.959,1.295,0.579,1.047,0.948,�k�k��,6.9,�L
2016/09/13,17:40,1.167,1.811,1.502,1.959,1.298,0.581,1.049,0.949,�k�k��,8.0,�L
2016/09/13,17:50,1.166,1.815,1.504,1.961,1.300,0.580,1.048,0.951,�k�k��,8.0,�L
2016/09/13,18:00,1.165,1.814,1.503,1.960,1.297,0.581,1.049,0.952,�k�k��,7.7,�L
2016/09/13,18:10,1.168,1.815,1.503,1.959,1.302,0.581,1.047,0.951,�k�k��,7.8,��
2016/09/13,18:20,1.166,1.814,1.506,1.963,1.304,0.581,1.048,0.951,�k�k��,8.0,��
2016/09/13,18:30,1.170,1.822,1.506,1.967,1.307,0.581,1.050,0.951,�k�k��,8.5,��
2016/09/13,18:40,1.173,1.823,1.509,1.973,1.307,0.581,1.051,0.953,�k�k��,7.7,��
2016/09/13,18:50,1.172,1.821,1.511,1.974,1.308,0.581,1.051,0.952,�k�k��,7.7,�L
2016/09/13,19:00,1.171,1.821,1.511,1.975,1.309,0.579,1.049,0.951,�k�k��,8.0,�L
2016/09/13,19:10,1.169,1.819,1.506,1.975,1.309,0.581,1.051,0.951,�k�k��,7.4,��
2016/09/13,19:20,1.170,1.819,1.511,1.974,1.310,0.583,1.053,0.953,�k�k��,7.2,��
2016/09/13,19:30,1.169,1.820,1.510,1.977,1.310,0.582,1.052,0.956,�k�k��,7.5,�L
2016/09/13,19:40,1.170,1.817,1.509,1.974,1.313,0.582,1.051,0.952,�k�k��,8.2,�L
2016/09/13,19:50,1.170,1.817,1.507,1.976,1.311,0.583,1.054,0.953,�k�k��,7.8,�L
2016/09/13,20:00,1.167,1.817,1.508,1.976,1.312,0.581,1.050,0.954,�k�k��,7.1,�L
2016/09/13,20:10,1.168,1.813,1.510,1.975,1.312,0.583,1.051,0.953,�k�k��,7.4,�L
2016/09/13,20:20,1.165,1.817,1.508,1.975,1.311,0.583,1.051,0.952,�k�k��,7.4,�L
2016/09/13,20:30,1.171,1.815,1.509,1.972,1.311,0.583,1.051,0.954,�k,6.0,�L
2016/09/13,20:40,1.171,1.819,1.511,1.976,1.314,0.581,1.051,0.954,�k,7.1,��
2016/09/13,20:50,1.174,1.816,1.511,1.975,1.316,0.582,1.050,0.953,�k,5.2,�L
2016/09/13,21:00,1.174,1.818,1.508,1.976,1.312,0.581,1.050,0.953,�k,6.6,�L
2016/09/13,21:10,1.173,1.821,1.512,1.976,1.314,0.583,1.052,0.955,�k�k��,6.3,��
2016/09/13,21:20,1.175,1.824,1.515,1.979,1.316,0.582,1.053,0.957,�k�k��,5.8,��
2016/09/13,21:30,1.176,1.825,1.515,1.980,1.320,0.585,1.054,0.955,�k�k��,6.1,�L
2016/09/13,21:40,1.175,1.824,1.516,1.979,1.318,0.585,1.054,0.956,�k�k��,6.4,�L
2016/09/13,21:50,1.176,1.822,1.514,1.979,1.317,0.583,1.052,0.956,�k�k��,6.7,�L
2016/09/13,22:00,1.178,1.823,1.513,1.979,1.318,0.582,1.052,0.955,�k�k��,6.1,�L
2016/09/13,22:10,1.176,1.819,1.512,1.978,1.316,0.583,1.053,0.955,�k�k��,6.4,�L
2016/09/13,22:20,1.175,1.817,1.511,1.973,1.315,0.584,1.053,0.953,�k�k��,6.9,�L
2016/09/13,22:30,1.172,1.817,1.509,1.973,1.316,0.582,1.050,0.954,�k�k��,7.1,�L
2016/09/13,22:40,1.173,1.817,1.509,1.979,1.318,0.585,1.051,0.954,�k��,7.5,��
2016/09/13,22:50,1.171,1.817,1.513,1.976,1.322,0.583,1.052,0.954,�k�k��,8.2,��
2016/09/13,23:00,1.172,1.817,1.512,1.979,1.321,0.583,1.053,0.953,�k�k��,7.4,��
2016/09/13,23:10,1.173,1.824,1.514,1.981,1.323,0.583,1.054,0.954,�k�k��,7.1,��
2016/09/13,23:20,1.173,1.823,1.515,1.980,1.324,0.583,1.055,0.955,�k�k��,6.4,��
2016/09/13,23:30,1.176,1.824,1.519,1.984,1.323,0.585,1.057,0.955,�k�k��,6.0,��
2016/09/13,23:40,1.177,1.825,1.518,1.986,1.325,0.584,1.056,0.956,�k�k��,7.4,��
2016/09/13,23:50,1.173,1.828,1.516,1.986,1.329,0.582,1.056,0.956,�k�k��,7.8,��
